[[[{"header":{"parameterUnit":"kt","parameterCategory":2,"dx":1,"dy":1,"la1":30.253999710083008,"la2":30.299108505249023,"lo1":-89.0895004272461,"lo2":-89.04439544677734,"nx":28,"ny":28,"refTime":"2022-09-21T21:00:00:Z","depth":0,"parameterNumber":1,"parameterNumberName":"U-component_of_WINDS"},"data":[6.8222,6.8457,6.8471,6.8747,6.8807,6.8999,6.9073,6.9171,6.9253,6.9487,6.9625,6.9668,6.9759,6.9931,7.0083,7.01,7.0164,7.0235,7.0242,6.9903,6.9857,6.9814,6.9756,7.0249,7.025,7.059,7.0593,7.0596,6.7972,6.8032,6.8182,6.8337,6.8467,6.8406,6.8526,6.8639,6.8814,6.8918,6.9054,6.9263,6.9432,6.9501,6.9667,6.9781,6.9763,6.9825,6.9816,6.9832,6.947,6.9409,6.9836,6.9836,6.9836,6.9836,6.9836,6.9835,6.752,6.766,6.7761,6.7924,6.8007,6.8112,6.825,6.8295,6.8445,6.8616,6.8607,6.8807,6.8916,6.9125,6.92,6.9358,6.9294,6.9367,6.9386,6.9404,6.9421,6.8926,6.9388,6.9387,6.9386,6.9385,6.9384,0,6.7193,6.7195,6.7339,6.7488,6.7608,6.7726,6.7838,6.7924,6.7936,6.806,6.8241,6.8348,6.8562,6.8737,6.8896,6.896,6.8913,6.891,6.8961,6.8967,6.8952,6.8962,6.8371,6.8897,6.8893,6.889,6.8888,6.8886,6.6737,6.69,6.7012,6.7112,6.7175,6.7338,6.7438,6.7436,6.7543,6.7682,6.7809,6.7982,6.8121,6.8413,6.8469,6.8631,6.861,6.8808,6.8634,6.8633,6.8613,6.8603,6.8619,6.8842,6.8848,6.8852,6.8856,0,6.648,6.65,6.6757,6.6853,6.6882,6.7054,6.7138,6.728,6.7309,6.7511,6.7557,6.7605,6.7785,6.7809,6.8021,6.8029,6.8318,6.8293,6.8279,6.8275,6.8456,6.8438,6.9037,6.9115,6.8605,6.861,6.8614,0,6.6099,6.6313,6.6332,6.648,6.6718,6.6708,6.6946,6.6994,6.7085,6.7243,6.719,6.734,6.7347,6.7502,6.7514,6.7754,6.7795,6.7815,6.7815,6.7819,6.7817,6.7878,6.7854,6.781,6.7807,6.7804,6.7802,0,6.5692,6.5954,6.6193,6.6257,6.6381,6.6495,6.6554,6.6655,6.6754,6.6887,6.6952,6.711,6.7197,6.7321,6.7333,6.7214,6.7628,6.7467,6.7649,6.7649,6.7739,6.7734,6.8257,6.7798,6.7797,6.7796,6.7795,0,6.5388,6.5517,6.5862,6.5963,6.6032,6.6193,6.6343,6.6485,6.6596,6.6612,6.6717,6.6685,6.6896,6.6734,6.7026,6.6867,6.6957,6.6995,6.7008,6.7029,6.6846,6.7138,6.7635,6.7687,6.7048,6.7042,6.7036,0,6.4917,6.5269,6.5261,6.5591,6.5756,6.5681,6.586,6.5959,6.5994,6.6142,6.6182,6.6353,6.6237,6.6294,6.6436,6.6485,6.6693,6.6458,6.6678,6.6686,6.6648,6.7105,6.7172,6.7523,6.6957,6.6965,6.6971,0,6.4553,6.4698,6.4757,6.4828,6.4954,6.5094,6.5299,6.5463,6.5562,6.568,6.5853,6.6095,6.6016,6.6112,6.6102,6.6249,6.6552,6.6146,6.6149,6.6219,6.6919,6.6981,6.704,6.6514,6.6524,6.6532,6.6908,0,6.4087,6.4265,6.4426,6.4584,6.4694,6.4902,6.492,6.5034,6.5011,6.5042,6.5297,6.5388,6.556,6.5633,6.5614,6.594,6.589,6.5805,6.5649,6.5949,6.6074,6.6125,6.5462,6.5457,6.5453,6.545,0,0,6.3631,6.3886,6.387,6.4065,6.4157,6.4075,6.4295,6.4377,6.4544,6.4611,6.4523,6.4877,6.4955,6.5264,6.5359,6.5429,6.549,6.5385,6.5806,6.5846,6.5883,6.6015,6.6068,6.5444,6.5442,6.5441,6.544,0,6.3463,6.3536,6.3751,6.3833,6.3952,6.3973,6.4025,6.4131,6.4162,6.441,6.4343,6.4499,6.4783,6.4874,6.4958,6.5347,6.529,6.5399,6.5601,6.5768,6.5812,6.5852,6.5991,6.6041,6.5431,6.5431,6.5432,0,6.3108,6.3182,6.3288,6.349,6.3568,6.3742,6.3581,6.3771,6.3901,6.3806,6.4055,6.4109,6.4233,6.4522,6.4653,6.4577,6.5106,6.4943,6.4968,6.4983,6.5146,6.52,6.5247,6.4619,6.4616,6.4614,0,0,6.2961,6.3125,6.3205,6.3455,6.3509,6.3543,6.3637,6.3623,6.3732,6.3776,6.3843,6.3955,6.4119,6.4228,6.4384,6.4699,6.4725,6.4842,6.4881,6.4912,6.4944,6.5115,6.5168,6.4603,6.4602,6.4602,0,0,6.2892,6.2991,6.2946,6.3238,6.3342,6.3439,6.3593,6.3542,6.3683,6.3662,6.3651,6.3681,6.3951,6.4008,6.3856,6.433,6.4175,6.4212,6.4282,6.4331,6.4369,6.435,6.3707,0,0,0,0,0,6.2727,6.2978,6.2936,6.2987,6.3244,6.3462,6.3495,6.3488,6.3377,6.35,6.3548,6.3479,6.3924,6.3789,6.3843,6.4012,6.446,6.4485,6.4509,6.4674,6.4725,6.4768,0,0,0,0,0,0,6.2747,6.281,6.2929,6.3037,6.3094,6.3452,6.3263,6.3269,6.3364,6.3347,6.3471,6.3483,6.3484,6.3762,6.381,6.3971,6.3691,6.4469,6.4491,6.451,6.4692,6.4733,6.4769,0,0,0,0,0,6.2763,6.2813,6.3226,6.3033,6.3084,6.3135,6.3254,6.3257,6.3331,6.3405,6.3414,6.3317,6.3489,6.353,6.379,6.3949,6.3657,6.3675,6.4483,6.45,6.4516,6.4712,0,0,0,0,0,0,6.2775,6.2819,6.3236,6.3252,6.2937,6.3115,6.3142,6.3247,6.3383,6.3394,6.325,6.3235,6.3496,6.3526,6.3558,6.3941,6.363,6.3648,6.366,6.4496,6.451,6.4522,0,0,0,0,0,0,6.2792,6.2833,6.3244,6.3123,6.3124,6.3096,6.3121,6.3342,6.3386,6.322,6.3211,6.3241,6.345,6.3525,6.3549,6.3895,6.3609,6.3626,6.3639,6.3646,6.4507,6.4518,0,0,0,0,0,0,6.2809,6.2844,6.3119,6.312,6.312,6.3291,6.3292,6.3558,6.3277,6.3215,6.3252,6.324,6.3451,6.3475,6.3544,6.388,6.3891,6.3609,6.3621,6.363,6.3635,0,0,0,0,0,0,0,6.2823,6.259,6.3146,6.3118,6.3117,6.3392,6.3397,6.3401,6.3274,6.3264,6.3255,6.3245,6.3508,6.3527,6.3547,6.3867,0,0,6.3608,6.3616,0,0,0,0,0,0,0,0,6.2575,6.2586,6.3146,6.3149,6.3152,6.3393,6.3396,6.34,6.3273,6.3265,6.3257,6.3249,6.3513,6.3529,6.3545,0,0,0,0,0,0,0,0,0,0,0,0,0,0,0,6.3146,6.3149,0,6.3393,6.3396,6.3399,6.3272,6.3265,6.3258,6.3252,6.3518,6.353,6.3544,0,0,0,0,0,0,0,0,0,0,0,0,0,0,0,0,0,0,0,0,0,0,0,0,0,0,0,0,0,0,0,0,0,0,0,0,0,0,0,0,0,0,0,0,0,0,0,0,0,0,0,0,0,0,0,0,0,0,0,0,0,0,0,0,0,0,0,0,0]}],[{"header":{"parameterUnit":"kt","parameterCategory":2,"dx":1,"dy":1,"la1":30.253999710083008,"la2":30.299108505249023,"lo1":-89.0895004272461,"lo2":-89.04439544677734,"nx":28,"ny":28,"refTime":"2022-09-21T21:00:00:Z","depth":0,"parameterNumber":2,"parameterNumberName":"V-component_of_WINDS"},"data":[3.7679,3.7796,3.7805,3.7942,3.7972,3.8066,3.8102,3.8149,3.8189,3.8301,3.8367,3.8385,3.8426,3.8505,3.8575,3.8582,3.8611,3.8648,3.8649,3.848,3.8457,3.8435,3.8408,3.8654,3.8654,3.8823,3.8825,3.8826,3.7556,3.7587,3.7662,3.774,3.7803,3.7773,3.7832,3.7887,3.7972,3.802,3.8085,3.8184,3.8263,3.8291,3.8367,3.8421,3.841,3.8441,3.8437,3.8444,3.8264,3.8235,3.8448,3.8448,3.8448,3.8448,3.8448,3.8448,3.7334,3.7404,3.7455,3.7536,3.7577,3.7628,3.7696,3.7717,3.7789,3.7871,3.7864,3.7959,3.8008,3.8102,3.8135,3.8209,3.8175,3.8211,3.822,3.8229,3.8239,3.7996,3.8222,3.8221,3.822,3.822,3.8219,0,3.7174,3.7175,3.7247,3.7322,3.7381,3.7438,3.7492,3.7534,3.7538,3.7597,3.7683,3.7733,3.7832,3.7913,3.7985,3.8011,3.7984,3.7982,3.8006,3.8012,3.8008,3.8012,3.7718,3.7975,3.7973,3.7971,3.797,3.797,3.6951,3.7031,3.7087,3.7137,3.7168,3.7247,3.7296,3.7293,3.7344,3.7409,3.747,3.7551,3.7615,3.775,3.7772,3.7845,3.7833,3.793,3.7843,3.7846,3.7835,3.7831,3.7839,3.7947,3.795,3.7953,3.7954,0,3.6825,3.6836,3.6962,3.7009,3.7023,3.7107,3.7147,3.7216,3.7228,3.7324,3.7346,3.7365,3.7448,3.7454,3.755,3.755,3.7688,3.7673,3.7671,3.7669,3.7757,3.7749,3.8042,3.8081,3.7825,3.7827,3.7829,0,3.6639,3.6744,3.6754,3.6826,3.6943,3.6937,3.7052,3.7074,3.7116,3.7191,3.7162,3.7233,3.7229,3.7301,3.7301,3.7414,3.7432,3.7439,3.7438,3.7442,3.7442,3.7469,3.7457,3.7431,3.743,3.7429,3.7427,0,3.6441,3.6568,3.6686,3.6717,3.6777,3.6832,3.6859,3.6906,3.6953,3.7014,3.7045,3.7116,3.7156,3.7211,3.7212,3.7153,3.735,3.7268,3.7357,3.7357,3.74,3.7398,3.7656,3.7426,3.7425,3.7425,3.7424,0,3.6292,3.6356,3.6524,3.6574,3.6607,3.6684,3.6755,3.6822,3.6873,3.6879,3.6927,3.6908,3.7006,3.6925,3.7061,3.6984,3.7025,3.704,3.7046,3.7056,3.6965,3.7111,3.7356,3.7382,3.7064,3.7061,3.7059,0,3.6063,3.6235,3.6232,3.6392,3.6472,3.6434,3.6519,3.6565,3.658,3.6649,3.6664,3.6743,3.6684,3.671,3.6776,3.6795,3.6894,3.6781,3.6881,3.6885,3.687,3.7095,3.713,3.7301,3.702,3.7024,3.7027,0,3.5886,3.5958,3.5987,3.6021,3.6081,3.6148,3.6246,3.6323,3.637,3.6424,3.6506,3.6616,3.6576,3.6618,3.661,3.6679,3.6827,3.6626,3.6627,3.6663,3.7001,3.7035,3.7063,3.6805,3.681,3.6814,3.6997,0,3.566,3.5747,3.5825,3.5902,3.5955,3.6054,3.6061,3.6115,3.6102,3.6114,3.6234,3.6272,3.6349,3.6383,3.637,3.6526,3.65,3.6456,3.6378,3.6525,3.6586,3.6611,3.6288,3.6285,3.6283,3.6282,0,0,3.5438,3.5563,3.5555,3.565,3.5694,3.5652,3.5758,3.5795,3.5872,3.5903,3.5859,3.602,3.6053,3.6197,3.6244,3.6275,3.6303,3.6251,3.6455,3.6474,3.6492,3.6557,3.6583,3.6278,3.6278,3.6277,3.6276,0,3.5357,3.5393,3.5498,3.5537,3.5593,3.5601,3.5627,3.5675,3.5688,3.5805,3.5768,3.584,3.5968,3.6008,3.6045,3.6234,3.6201,3.6257,3.6357,3.6436,3.6457,3.6477,3.6545,3.6569,3.6272,3.6272,3.6272,0,3.5185,3.5221,3.5272,3.5369,3.5406,3.5489,3.5408,3.5499,3.5561,3.5509,3.5625,3.5647,3.5699,3.5835,3.5896,3.5857,3.6109,3.603,3.6042,3.6049,3.6125,3.6151,3.6175,3.5867,3.5865,3.5864,0,0,3.5114,3.5194,3.5231,3.5352,3.5378,3.5391,3.5435,3.5427,3.5476,3.5495,3.5522,3.5571,3.5645,3.5694,3.5764,3.5912,3.5923,3.598,3.5999,3.6014,3.603,3.611,3.6136,3.5858,3.5858,3.5858,0,0,3.5079,3.5127,3.5105,3.5246,3.5295,3.5338,3.5412,3.5386,3.5449,3.5438,3.5427,3.5439,3.5565,3.5588,3.5515,3.5737,3.5659,3.5676,3.5717,3.5742,3.576,3.5752,3.5437,0,0,0,0,0,3.4999,3.5121,3.5101,3.5125,3.5247,3.535,3.5365,3.5359,3.5304,3.5363,3.5381,3.5343,3.5546,3.5482,3.5506,3.5587,3.5789,3.5801,3.5813,3.5901,3.5926,3.5947,0,0,0,0,0,0,3.5009,3.5039,3.5098,3.5146,3.5173,3.5345,3.5252,3.5253,3.5298,3.5289,3.5341,3.5345,3.5341,3.5469,3.5491,3.5568,3.543,3.5794,3.5804,3.5814,3.5909,3.593,3.5948,0,0,0,0,0,3.5017,3.5041,3.5238,3.5144,3.5168,3.5189,3.5247,3.5248,3.5282,3.531,3.5313,3.5273,3.5343,3.5361,3.5482,3.5558,3.5415,3.5423,3.5801,3.5809,3.5816,3.592,0,0,0,0,0,0,3.5022,3.5042,3.5242,3.5249,3.5098,3.5179,3.5192,3.5243,3.53,3.5304,3.5241,3.5234,3.5346,3.5359,3.5373,3.5555,3.5402,3.5411,3.5416,3.5807,3.5813,3.5819,0,0,0,0,0,0,3.5029,3.5048,3.5246,3.5187,3.5187,3.517,3.5181,3.5282,3.5301,3.5227,3.5223,3.5237,3.5325,3.5359,3.537,3.5528,3.5393,3.5401,3.5406,3.541,3.5812,3.5817,0,0,0,0,0,0,3.5037,3.5053,3.5185,3.5186,3.5185,3.5263,3.5259,3.5384,3.5252,3.5225,3.524,3.5234,3.5326,3.5336,3.5368,3.5521,3.5526,3.5393,3.5398,3.5402,3.5405,0,0,0,0,0,0,0,3.5043,3.4934,3.5201,3.5184,3.5184,3.5313,3.5315,3.5317,3.5251,3.5246,3.5241,3.5237,3.5347,3.5356,3.5365,3.5516,0,0,3.5392,3.5396,0,0,0,0,0,0,0,0,3.4927,3.4932,3.5201,3.5203,3.5204,3.5314,3.5315,3.5317,3.525,3.5246,3.5242,3.5239,3.535,3.5357,3.5364,0,0,0,0,0,0,0,0,0,0,0,0,0,0,0,3.5202,3.5203,0,3.5314,3.5315,3.5316,3.5249,3.5246,3.5243,3.524,3.5352,3.5357,3.5363,0,0,0,0,0,0,0,0,0,0,0,0,0,0,0,0,0,0,0,0,0,0,0,0,0,0,0,0,0,0,0,0,0,0,0,0,0,0,0,0,0,0,0,0,0,0,0,0,0,0,0,0,0,0,0,0,0,0,0,0,0,0,0,0,0,0,0,0,0]}]]]